Printer-friendly version

IAU Minor Planet Center

Minor Planet Center

MPEC 2008-A47 : 2008 AH4

The following Minor Planet Electronic Circular may be linked-to from your own Web pages, but must not otherwise be redistributed electronically.


Read MPEC 2008-A46 Read MPEC 2008-A48


M.P.E.C. 2008-A47                                Issued 2008 Jan. 11, 16:49 UT

     The Minor Planet Electronic Circulars contain information on unusual
         minor planets and routine data on comets.  They are published
   on behalf of Commission 20 of the International Astronomical Union by the
          Minor Planet Center, Smithsonian Astrophysical Observatory,
                          Cambridge, MA 02138, U.S.A.

             Prepared using the Tamkin Foundation Computer Network

                              MPC@CFA.HARVARD.EDU
          URL http://www.cfa.harvard.edu/iau/mpc.html  ISSN 1523-6714

                                   2008 AH4

Observations:
     K08A04H* C2008 01 10.47383 11 07 46.34 +04 07 53.5          19.7 V EA047G96
     K08A04H  C2008 01 10.47896 11 07 49.47 +04 09 23.6          19.7 V EA047G96
     K08A04H  C2008 01 10.48412 11 07 52.68 +04 10 55.2          19.6 V EA047G96
     K08A04H  C2008 01 10.48926 11 07 55.81 +04 12 25.2          19.4 V EA047G96
     K08A04H  C2008 01 10.52343 11 08 16.90 +04 22 29.3                 EA047G96
     K08A04H  C2008 01 10.52542 11 08 18.16 +04 23 04.1                 EA047G96
     K08A04H  C2008 01 10.53948 11 08 26.91 +04 27 15.7          19.9 V EA047G96
     K08A04H  C2008 01 10.53990 11 08 27.16 +04 27 22.4          19.8 V EA047G96
     K08A04H  C2008 01 10.54031 11 08 27.45 +04 27 30.5          19.7 V EA047G96
     K08A04H  C2008 01 10.54073 11 08 27.70 +04 27 37.8          19.6 V EA047G96
     K08A04H  C2008 01 10.54629 11 08 31.16 +04 29 16.9          19.7 V EA047G96
     K08A04H  C2008 01 10.54670 11 08 31.45 +04 29 24.2          19.8 V EA047G96
     K08A04H  C2008 01 10.54712 11 08 31.70 +04 29 31.5          19.6 V EA047G96
     K08A04H  C2008 01 10.54755 11 08 31.95 +04 29 39.2          19.7 V EA047G96
     K08A04H  C2008 01 11.49107 11 19 33.29 +09 34 08.6          18.6 R EA047734
     K08A04H  C2008 01 11.49251 11 19 34.36 +09 34 38.5          18.8 R EA047734
     K08A04H  C2008 01 11.49393 11 19 35.43 +09 35 08.3          19.1 R EA047734
     K08A04H  C2008 01 11.49536 11 19 36.51 +09 35 38.7          18.7 R EA047734

Observer details:
734 Farpoint Observatory.  Observer G. Hug.  0.7-m reflector + CCD.
G96 Mt. Lemmon Survey.  Observer S. M. Larson.  Measurers E. C. Beshore,
    A. Boattini, G. J. Garradd, A. R. Gibbs, A. D. Grauer, R. E. Hill,
    R. A. Kowalski, S. M. Larson, R. H. McNaught.  1.5-m reflector + CCD.

Orbital elements:
2008 AH4                                                 Earth MOID = 0.0891 AU
Epoch 2007 Oct. 27.0 TT = JDT 2454400.5                 MPC
M 318.15022              (2000.0)            P               Q
n   0.33250895     Peri.   68.76171     -0.49834719     +0.29491071
a   2.0634811      Node   117.09106     -0.20009380     -0.95410388
e   0.6006400      Incl.   66.31250     +0.84357130     -0.05209085
P   2.96           H   21.5           G   0.15           U   9
Residuals in seconds of arc
080110 G96  0.2+  0.2+    080110 G96  0.1-  0.4+    080110 G96  0.3+  0.1+
080110 G96  0.2-  0.1-    080110 G96  0.3-  0.4-    080110 G96  0.0   0.1+
080110 G96  0.4+  0.6+    080110 G96  0.2+  0.4+    080111 734  0.0   0.1+
080110 G96  0.1-  0.1-    080110 G96  0.1+  0.2+    080111 734  0.1-  0.2-
080110 G96  0.6-  0.8-    080110 G96  0.1-  0.3+    080111 734  0.0   0.1-
080110 G96  0.2-  1.3-    080110 G96  0.4+  0.3+    080111 734  0.1+  0.3+

Ephemeris:
2008 AH4                 a,e,i = 2.06, 0.60, 66                  q = 0.8241
Date    TT    R. A. (2000) Decl.     Delta      r     Elong.  Phase     V
2008 01 05    10 29.19   -13 03.6    0.267    1.132   117.6    50.3    20.8
2008 01 07    10 39.93   -08 32.4    0.229    1.115   119.8    49.9    20.4
2008 01 09    10 54.07   -02 12.2    0.193    1.098   121.9    49.5    20.0
2008 01 11    11 13.59   +06 49.7    0.162    1.081   123.3    49.5    19.6
2008 01 13    11 42.10   +19 27.1    0.138    1.064   122.6    51.1    19.2
2008 01 15    12 26.30   +35 15.9    0.126    1.048   117.5    56.3    19.1
2008 01 17    13 36.75   +50 34.8    0.129    1.032   108.5    64.7    19.4
2008 01 19    15 17.98   +60 09.0    0.146    1.016    98.7    73.2    19.9
2008 01 21    17 02.82   +62 41.1    0.172    1.001    90.6    79.5    20.5
2008 01 23    18 18.85   +61 18.7    0.205    0.986    84.4    83.6    21.0
2008 01 25    19 06.66   +58 51.8    0.241    0.971    79.8    86.1    21.4
2008 01 27    19 37.10   +56 26.2    0.278    0.957    76.1    87.5    21.7
2008 01 29    19 57.57   +54 18.0    0.317    0.943    73.1    88.1    22.0
2008 01 31    20 12.10   +52 28.3    0.357    0.930    70.6    88.2    22.2
2008 02 02    20 22.89   +50 54.1    0.396    0.917    68.5    87.8    22.4
2008 02 04    20 31.22   +49 32.5    0.436    0.905    66.5    87.2    22.5

Sonia Keys                   (C) Copyright 2008 MPC           M.P.E.C. 2008-A47

Read MPEC 2008-A46 Read MPEC 2008-A48


Our Web policy. Index to the CBAT/MPC/ICQ pages.


Valid HTML 4.01!